Temp
66 59 55 62 66 66 65 63 62 69 76 73 71 72 76 80 81 80 81 81 81 83 87 87 84 80 79 76 73 71 68 66 66 64 63 62 61 61 61 61 60 60 59 60
63 56 66 70 69 67 66 63 61 68 73 71 70 69 75 77 78 80 80 81 81 82 85 85 82 77 74 73 71 70 68 66 66 66 65 64 63 61 60 58 58 58 58 58
60 65 72 68 65 63 64 60 60 61 68 71 67 64 68 75 79 80 82 84 84 82 81 83 78 73 72 71 69 70 68 66 65 66 65 64 62 59 56 55 54 56 57 58
64 70 68 65 63 65 57 67 65 63 60 53 67 50 63 71 74 78 81 80 81 82 83 83 78 73 71 70 69 70 70 67 66 66 65 61 59 56 57 56 55 54 56 55
59 64 63 61 62 67 61 68 64 62 57 57 58 53 61 71 70 71 72 73 73 74 75 79 80 74 73 70 68 68 68 68 66 66 63 60 58 58 59 57 53 53 53 54
62 71 68 66 68 67 67 62 62 61 57 45 55 55 56 63 65 68 71 72 71 72 73 75 77 77 73 69 68 66 66 67 66 64 62 59 58 58 56 54 53 52 52 52
58 59 66 70 61 64 62 55 43 40 40 40 59 55 60 62 68 69 67 68 69 70 69 71 72 73 70 67 66 65 66 65 64 62 61 60 60 57 55 54 53 52 51 50
50 49 61 66 62 58 57 55 44 35 37 44 57 49 57 64 69 69 70 69 70 69 69 68 70 70 71 68 66 65 64 63 63 61 61 62 61 58 57 56 55 53 52 51
50 51 65 65 66 64 56 49 59 46 47 38 48 57 66 58 58 65 66 67 67 68 69 69 68 68 68 69 64 62 63 63 62 60 59 59 59 57 56 55 54 52 52 52
55 46 59 61 63 64 59 61 46 45 33 33 45 49 51 51 56 61 63 63 65 67 66 67 68 68 67 67 67 62 61 60 60 58 58 58 56 56 55 53 51 50 50 50
58 52 53 59 53 53 55 51 51 50 44 35 35 43 52 51 56 59 63 66 66 65 66 66 66 68 66 66 64 59 57 57 57 55 54 53 53 53 52 50 50 49 48 49
57 52 45 51 61 61 57 51 50 36 38 41 40 41 62 61 63 64 64 66 67 66 66 66 64 64 65 63 62 58 56 56 55 55 53 52 52 51 49 48 48 47 47 47
55 46 38 43 52 57 51 53 52 52 48 40 34 39 62 62 62 65 63 64 66 66 67 66 65 63 63 63 61 59 55 54 56 55 53 51 50 49 47 46 45 45 45 45
52 48 42 36 44 47 43 47 49 45 37 40 41 46 54 57 58 62 63 64 65 65 66 66 65 62 62 61 60 57 53 53 54 52 51 49 49 47 44 44 43 43 44 43
49 37 41 44 46 46 45 46 48 45 46 38 42 46 53 57 58 60 62 64 65 65 65 65 62 60 59 58 58 56 53 52 51 50 49 47 45 44 43 41 42 42 42 43
50 37 37 35 42 43 40 45 47 47 48 48 48 47 58 60 61 60 61 63 64 64 64 62 62 61 59 57 55 54 51 50 50 48 47 44 42 42 40 40 40 40 39 38
45 40 36 31 41 40 33 41 45 47 50 48 40 49 57 56 58 59 61 63 63 61 60 60 60 60 57 56 51 49 48 47 46 43 42 41 40 37 37 38 37 36 35 35
42 41 38 31 36 22 42 53 52 49 51 54 54 56 58 60 61 63 64 61 59 58 58 57 56 56 56 54 52 48 46 43 40 40 37 35 34 33 33 33 32 32 33 32
48 41 33 27 29 37 42 48 48 45 45 54 53 56 59 61 62 60 57 55 55 54 54 53 54 52 52 50 48 44 36 36 35 34 33 33 32 32 32 32 32 32 32 32
48 45 35 32 25 22 38 51 57 54 37 54 56 52 50 51 44 46 54 53 50 50 53 53 51 50 48 45 44 36 34 33 32 32 32 32 32 32 31 32 32 31 31 30
37 36 30 31 27 34 47 52 55 34 37 51 50 51 48 40 45 50 49 41 42 47 50 52 50 44 41 41 36 33 33 32 33 32 32 32 32 31 31 31 31 30 30 30
35 32 31 32 27 24 52 51 41 45 51 51 52 54 52 51 48 48 42 36 37 39 49 52 46 42 42 38 36 33 32 32 33 32 32 30 30 31 31 30 30 30 29 28
31 38 35 37 36 48 53 51 52 52 50 52 51 52 55 46 40 38 36 36 35 37 45 53 46 42 41 39 37 34 32 33 32 31 29 29 30 30 30 29 29 28 28 28
44 49 38 39 45 48 51 55 56 56 50 55 55 54 53 40 37 35 34 35 36 39 47 52 48 42 38 38 37 35 33 33 31 29 29 29 29 28 29 30 30 28 28 28
42 43 39 38 42 47 50 53 54 54 54 54 55 55 54 43 41 45 40 39 40 41 46 49 44 40 36 36 34 34 33 32 30 29 29 28 29 28 28 29 29 30 32 32
43 39 35 34 45 44 46 51 54 51 51 53 53 53 52 53 51 51 46 48 48 44 44 44 40 38 35 34 32 32 33 33 32 29 29 28 28 28 28 28 27 33 32 34
MSLP
1009.37 1009.23 1008.46 1008.05 1007.62 1007.04 1006.33 1005.42 1004.22 1003.15 1002.21 1001.62 1001.26 1000.89 1000.76 1000.81 1000.63 1000.37 1000.37 1000.87 1001.38 1001.66 1001.94 1002.81 1003.82 1005.42 1007.26 1008.78 1010.08 1011.19 1012.45 1013.21 1013.80 1014.30 1014.71 1015.11 1015.58 1015.95 1016.32 1016.77 1017.18 1017.49 1017.98 1017.83
1008.63 1007.74 1007.60 1007.35 1006.90 1006.30 1005.57 1005.06 1004.51 1003.80 1003.20 1002.67 1002.00 1001.17 1001.02 1000.94 1000.62 1000.31 1000.06 1000.02 1000.63 1001.37 1001.62 1001.98 1003.15 1005.00 1006.87 1008.67 1010.22 1011.52 1012.66 1013.61 1014.12 1014.35 1014.45 1014.78 1015.20 1015.83 1016.53 1017.15 1017.46 1017.64 1017.92 1018.28
1007.37 1006.39 1006.04 1006.22 1006.51 1006.06 1005.61 1005.46 1005.23 1004.67 1004.08 1003.14 1002.66 1001.32 1001.46 1000.52 999.88 999.51 999.36 999.50 999.95 1000.72 1001.67 1002.01 1003.19 1004.83 1006.49 1008.10 1009.57 1011.09 1012.39 1013.43 1014.15 1014.29 1014.46 1014.69 1015.18 1015.95 1016.69 1017.23 1017.78 1017.85 1017.94 1018.12
1006.61 1006.38 1005.88 1005.99 1006.02 1006.32 1005.65 1005.64 1005.56 1005.21 1004.84 1003.74 1003.70 1001.29 1001.53 1000.76 999.81 999.06 998.81 999.25 999.94 1000.54 1001.16 1002.18 1003.30 1004.73 1006.06 1007.57 1008.80 1010.16 1011.30 1012.56 1013.65 1014.07 1014.34 1015.02 1015.39 1015.83 1016.36 1016.97 1017.54 1018.05 1018.09 1018.33
1006.38 1006.14 1005.99 1005.85 1006.09 1006.18 1005.80 1006.13 1006.14 1006.18 1006.07 1005.31 1004.52 1003.69 1001.48 1000.81 1000.06 1000.17 1000.98 1001.21 1001.85 1002.31 1002.75 1002.50 1003.14 1004.38 1005.50 1007.26 1008.82 1010.14 1011.07 1011.89 1012.87 1013.70 1014.30 1015.08 1015.73 1015.90 1016.04 1016.65 1017.43 1018.10 1018.31 1018.47
1006.76 1006.49 1006.30 1006.09 1006.22 1006.64 1006.99 1006.99 1006.97 1007.09 1006.82 1005.69 1005.03 1004.28 1001.21 1001.46 1001.84 1001.98 1002.54 1003.11 1003.79 1004.22 1004.30 1004.25 1004.07 1003.96 1006.01 1007.86 1009.31 1010.36 1011.26 1011.93 1012.50 1013.45 1014.35 1015.23 1015.73 1015.63 1016.09 1016.78 1017.38 1018.04 1018.25 1018.45
1006.92 1006.22 1006.06 1006.16 1006.48 1007.04 1007.49 1007.69 1007.63 1007.67 1007.41 1006.16 1004.86 1003.87 1002.60 1002.81 1003.32 1003.51 1004.04 1004.65 1005.18 1005.66 1005.98 1005.82 1005.83 1006.35 1007.27 1008.46 1009.58 1010.34 1011.16 1011.74 1012.30 1013.01 1014.14 1014.97 1015.61 1015.85 1016.46 1017.05 1017.43 1017.84 1018.47 1018.85
1006.00 1005.01 1004.83 1005.15 1005.57 1006.33 1006.78 1007.59 1007.80 1007.54 1007.55 1006.79 1005.84 1004.18 1003.60 1003.41 1004.28 1004.87 1005.11 1005.74 1006.23 1006.53 1007.11 1007.13 1007.04 1007.41 1007.74 1008.41 1009.32 1010.38 1011.04 1011.79 1012.35 1012.83 1013.59 1014.35 1015.00 1015.41 1016.04 1016.82 1017.17 1017.56 1018.04 1018.77
1005.95 1005.06 1004.93 1005.52 1005.57 1005.99 1006.81 1007.32 1007.96 1008.14 1008.60 1008.73 1006.71 1004.81 1004.04 1005.61 1006.24 1006.14 1005.98 1006.53 1006.58 1006.50 1007.00 1007.15 1007.49 1007.71 1007.96 1008.51 1009.10 1010.05 1010.74 1011.65 1012.27 1012.88 1013.41 1014.14 1014.52 1014.95 1015.66 1016.31 1016.90 1017.46 1017.95 1018.79
1007.07 1006.64 1005.83 1006.22 1006.53 1006.53 1006.61 1007.73 1008.09 1008.94 1008.94 1008.54 1006.31 1005.82 1005.68 1006.45 1006.68 1006.34 1006.43 1006.73 1006.85 1006.58 1006.92 1007.57 1007.87 1007.96 1008.28 1008.55 1009.00 1009.92 1011.02 1011.73 1012.25 1012.65 1013.18 1013.96 1014.75 1015.36 1015.68 1016.09 1016.84 1017.65 1018.19 1018.72
1007.87 1007.48 1006.54 1006.61 1007.31 1006.90 1007.28 1007.93 1008.87 1009.10 1009.44 1008.82 1007.66 1006.13 1006.45 1006.99 1007.29 1006.55 1006.54 1006.78 1006.88 1006.83 1007.20 1007.91 1008.41 1008.46 1008.51 1008.89 1009.44 1010.23 1011.12 1011.84 1012.51 1013.11 1013.58 1014.15 1014.90 1015.49 1016.13 1016.47 1017.15 1017.78 1018.39 1019.04
1008.27 1008.33 1007.55 1007.18 1007.36 1007.94 1008.35 1009.09 1009.64 1010.04 1009.47 1009.30 1008.52 1006.27 1005.58 1006.35 1006.60 1006.59 1006.58 1006.59 1006.82 1006.84 1007.22 1007.89 1008.48 1008.67 1008.93 1009.19 1009.80 1010.72 1011.63 1012.46 1013.13 1013.79 1014.20 1014.69 1015.11 1016.01 1016.51 1017.11 1017.85 1018.32 1018.68 1019.24
1009.52 1009.78 1009.53 1008.67 1008.35 1008.53 1009.05 1009.45 1009.86 1009.72 1009.69 1008.98 1009.08 1006.94 1006.41 1005.90 1005.80 1006.05 1006.19 1006.57 1006.66 1006.54 1006.85 1007.39 1007.84 1008.58 1009.27 1009.70 1009.83 1010.55 1011.55 1012.47 1013.26 1013.65 1014.55 1015.23 1015.81 1016.18 1016.89 1017.80 1018.22 1018.86 1019.36 1019.52
1011.12 1010.86 1010.65 1010.27 1009.60 1010.46 1010.47 1010.43 1010.43 1010.67 1010.07 1009.31 1008.65 1007.78 1006.61 1006.40 1006.20 1005.97 1006.03 1006.18 1006.34 1006.51 1006.82 1007.14 1007.57 1008.72 1009.55 1010.09 1010.60 1010.76 1010.94 1011.57 1012.60 1013.47 1014.33 1015.18 1016.02 1016.91 1017.73 1018.39 1018.90 1019.26 1019.62 1020.10
1012.19 1012.43 1012.53 1012.18 1011.82 1011.70 1011.47 1010.87 1010.30 1010.14 1010.03 1009.74 1009.52 1008.27 1006.95 1006.36 1006.18 1006.15 1006.12 1006.18 1006.20 1006.32 1006.68 1007.22 1007.99 1008.83 1009.74 1010.36 1010.86 1011.41 1011.52 1011.70 1012.02 1012.97 1013.95 1014.89 1015.91 1017.18 1018.16 1018.89 1019.77 1020.14 1020.29 1020.57
1012.58 1013.19 1013.77 1013.41 1013.32 1012.85 1012.07 1010.63 1010.11 1009.88 1009.55 1009.01 1008.36 1007.35 1007.10 1006.74 1006.29 1006.12 1006.25 1006.06 1005.74 1006.13 1006.89 1007.64 1008.20 1008.76 1009.48 1010.28 1010.91 1011.37 1011.72 1011.90 1012.26 1012.88 1013.69 1014.66 1015.99 1017.02 1017.93 1018.99 1019.94 1020.67 1020.74 1021.21
1012.49 1013.30 1013.86 1013.13 1013.34 1012.64 1011.52 1010.20 1009.68 1009.18 1008.94 1008.50 1007.74 1007.06 1006.80 1006.47 1006.01 1005.88 1005.77 1005.72 1006.13 1006.73 1007.47 1008.06 1008.56 1009.03 1009.67 1010.29 1010.82 1011.39 1011.89 1012.28 1012.57 1013.32 1014.17 1015.20 1016.19 1017.37 1018.02 1019.06 1019.94 1021.01 1020.99 1021.95
1012.81 1013.26 1013.92 1013.46 1013.85 1012.74 1010.51 1009.56 1009.23 1008.64 1008.05 1007.60 1006.86 1006.40 1006.12 1005.60 1005.42 1005.67 1005.89 1006.29 1007.18 1007.75 1008.31 1008.80 1009.41 1009.78 1010.07 1010.50 1011.20 1011.75 1011.90 1012.50 1013.18 1013.85 1014.78 1015.97 1017.13 1018.13 1018.89 1019.81 1020.48 1020.97 1020.99 1021.72
1012.87 1013.47 1013.95 1013.75 1012.92 1011.87 1010.04 1009.20 1008.89 1008.23 1007.80 1007.48 1007.05 1006.58 1005.90 1005.68 1005.60 1005.65 1006.74 1007.89 1009.16 1009.58 1009.19 1009.76 1010.35 1010.62 1010.67 1011.12 1011.56 1012.14 1013.00 1012.89 1014.04 1014.67 1015.39 1016.13 1017.01 1018.02 1018.76 1019.51 1020.07 1020.59 1020.97 1021.68
1012.24 1012.87 1013.64 1013.27 1012.72 1011.73 1009.06 1009.21 1008.66 1008.22 1007.62 1007.79 1007.24 1007.38 1007.67 1007.23 1006.94 1008.02 1008.81 1009.43 1009.92 1009.96 1009.92 1010.46 1010.80 1011.14 1011.34 1011.54 1012.09 1012.63 1013.54 1013.83 1014.69 1015.52 1016.26 1016.95 1017.68 1018.60 1019.29 1019.90 1020.58 1020.96 1021.40 1022.08
1011.55 1012.06 1012.43 1012.45 1012.41 1011.13 1009.36 1009.50 1009.05 1008.73 1008.81 1008.54 1008.59 1008.35 1008.37 1008.90 1010.04 1009.65 1010.55 1010.06 1010.63 1010.75 1010.63 1010.89 1011.35 1012.03 1012.34 1012.60 1012.89 1013.54 1014.01 1014.46 1015.14 1015.92 1016.71 1017.55 1018.24 1019.01 1019.80 1020.50 1021.08 1021.43 1022.03 1022.65
1011.18 1011.49 1011.49 1011.89 1011.85 1010.64 1009.32 1008.95 1009.01 1009.11 1008.79 1009.30 1008.49 1008.31 1008.30 1009.14 1009.49 1010.27 1010.73 1011.12 1011.33 1011.41 1010.96 1011.20 1011.61 1012.46 1012.78 1013.06 1013.37 1013.96 1014.54 1015.04 1015.72 1016.34 1017.25 1017.90 1018.74 1019.53 1020.19 1020.94 1021.43 1021.80 1022.49 1023.05
1010.64 1010.69 1010.58 1010.77 1010.07 1009.58 1008.89 1008.38 1008.52 1009.36 1009.47 1008.87 1008.62 1009.42 1008.24 1009.37 1010.44 1011.90 1011.51 1011.84 1011.88 1012.30 1011.45 1011.12 1011.94 1012.63 1013.08 1013.35 1013.73 1014.15 1014.83 1015.41 1016.05 1016.88 1017.60 1018.52 1019.17 1019.82 1020.55 1020.98 1021.51 1022.09 1022.75 1023.33
1009.93 1009.93 1010.10 1010.24 1009.15 1009.21 1008.76 1008.34 1008.29 1008.40 1009.12 1009.18 1009.00 1008.78 1008.76 1009.56 1010.32 1011.57 1011.59 1011.99 1012.14 1012.60 1011.59 1011.36 1011.99 1012.77 1013.44 1013.89 1014.07 1014.43 1014.94 1015.67 1016.23 1017.05 1017.87 1018.65 1019.26 1020.06 1021.07 1021.52 1021.77 1022.18 1022.64 1023.15
1010.26 1010.36 1009.84 1009.88 1009.75 1009.47 1008.79 1008.35 1008.13 1008.39 1008.79 1008.69 1008.84 1008.55 1008.62 1009.41 1010.01 1010.50 1010.88 1011.37 1012.12 1012.37 1011.91 1011.73 1012.48 1013.29 1013.95 1014.38 1014.55 1014.88 1015.35 1015.82 1016.73 1017.27 1018.15 1018.96 1019.61 1020.07 1020.69 1021.69 1022.06 1022.26 1022.44 1022.68
1010.66 1009.84 1010.03 1009.17 1009.19 1009.33 1008.64 1008.60 1008.54 1008.47 1008.57 1008.66 1008.48 1008.07 1008.49 1008.57 1008.67 1009.14 1010.00 1010.52 1011.06 1011.75 1012.16 1012.36 1013.02 1013.74 1014.29 1014.69 1014.97 1015.17 1015.62 1016.14 1016.75 1017.59 1018.28 1019.09 1019.84 1020.71 1021.05 1021.67 1022.22 1022.21 1022.47 1022.45
Wind_Speed
15 11 15 18 18 20 18 21 23 21 21 20 16 17 16 14 16 18 14 14 13 14 17 15 15 16 12 11 13 13 10 10 7 7 7 7 6 5 4 5 6 6 4 2
12 16 16 18 20 20 20 18 17 19 19 19 19 21 17 15 18 18 19 14 17 14 15 17 18 17 13 11 10 10 10 9 6 5 5 6 7 5 5 5 5 5 6 2
19 13 18 13 18 19 16 15 19 21 21 22 19 23 20 24 24 24 23 18 13 14 14 9 18 18 15 13 13 10 10 10 7 6 4 4 6 5 4 5 3 4 5 5
17 17 19 17 15 13 18 15 17 19 17 15 13 19 16 18 18 19 17 15 11 8 9 8 15 19 18 14 15 13 13 12 9 7 5 7 6 7 6 6 6 4 6 6
15 13 14 14 16 17 21 19 16 12 15 19 14 13 10 14 9 15 20 23 22 19 21 4 7 20 18 15 11 9 8 11 10 7 5 5 5 5 6 7 10 6 5 6
22 18 16 13 7 10 10 12 12 14 13 14 13 15 14 6 9 12 14 17 18 18 19 18 17 9 15 13 9 8 7 8 9 7 5 6 8 6 7 8 7 6 5 5
19 25 24 17 16 11 9 8 6 4 5 11 14 11 10 9 14 13 15 14 15 15 15 14 16 9 11 11 8 9 10 7 7 9 7 7 8 7 7 8 6 8 6 4
8 16 26 20 25 16 15 15 8 6 6 11 15 8 1 8 14 12 13 11 10 8 6 8 11 8 7 12 11 9 9 7 6 8 10 7 8 5 5 7 4 5 5 6
5 13 8 1 6 16 16 15 12 14 11 4 8 15 14 17 11 9 9 9 9 6 9 7 4 6 7 5 8 10 10 9 7 7 7 6 6 7 6 7 6 4 8 7
3 6 3 6 1 5 12 3 7 4 5 10 13 15 6 12 6 7 4 4 8 7 10 12 13 2 4 5 4 8 8 7 6 7 6 5 4 4 5 7 7 8 7 8
9 9 5 8 7 9 8 13 6 5 6 3 7 6 13 11 8 8 2 8 9 6 5 6 9 13 1 2 2 6 6 5 1 5 5 6 5 6 6 6 7 8 8 9
2 5 11 13 5 3 2 7 7 4 9 7 8 17 15 4 3 10 11 13 12 5 5 3 6 7 11 4 4 7 5 4 4 4 5 5 6 6 6 7 7 7 8 8
2 4 7 10 11 11 9 6 12 13 14 17 12 11 9 18 16 12 13 11 13 10 9 4 2 5 6 9 5 7 9 6 6 6 7 6 5 7 8 8 10 8 5 8
4 7 7 9 7 3 7 11 12 11 9 11 13 18 19 18 18 16 15 12 13 9 8 9 2 4 7 6 4 4 8 10 7 7 7 7 9 7 7 8 9 8 8 8
1 4 7 12 13 13 15 18 20 19 18 16 18 20 22 19 17 16 16 16 14 11 9 8 8 4 3 6 6 3 4 8 9 11 10 10 9 10 10 9 8 7 9 9
9 4 3 6 10 12 17 23 23 22 22 21 21 22 19 20 21 19 18 20 12 9 8 9 8 7 5 3 4 6 5 7 9 11 10 12 13 13 13 11 8 6 9 9
11 6 7 15 11 10 15 19 22 21 20 19 19 20 20 20 20 18 18 14 13 7 9 9 10 8 4 4 0 6 5 5 6 9 11 11 13 13 13 11 10 9 11 8
6 8 6 10 8 13 15 19 19 21 22 20 21 18 21 19 14 16 10 11 12 10 8 8 8 8 8 0 4 3 5 5 6 10 12 12 11 10 11 9 7 8 9 9
13 10 6 6 8 13 23 17 14 16 17 19 20 20 20 20 16 12 13 11 6 6 6 5 6 8 8 4 1 3 3 8 8 9 11 13 15 14 14 14 11 8 11 10
17 14 10 10 12 10 17 13 13 15 13 17 15 11 15 19 10 4 12 5 6 6 7 7 8 8 9 3 4 7 6 8 9 9 11 11 10 11 10 9 8 7 10 9
8 10 15 13 12 12 21 21 19 15 9 11 13 16 9 4 9 3 2 9 6 6 6 6 7 7 5 4 6 6 7 8 9 10 11 11 10 10 9 8 8 9 9 9
14 11 10 12 14 18 7 15 16 9 8 14 15 11 10 5 8 2 8 5 6 6 5 3 5 5 3 5 6 6 6 8 10 12 11 12 13 9 8 10 9 9 9 9
16 13 10 14 11 11 13 16 2 5 15 13 10 19 11 5 5 8 4 3 3 5 6 2 5 4 5 5 6 7 7 10 12 12 13 12 12 10 10 10 10 9 9 7
16 15 11 13 17 18 19 16 15 10 8 16 16 16 14 7 9 7 1 1 1 5 6 4 3 5 3 2 4 6 10 11 12 14 13 12 12 11 8 7 7 7 7 8
9 13 14 12 17 17 19 17 11 14 14 16 18 15 19 11 11 11 7 5 4 5 4 3 4 3 3 3 5 7 9 12 12 12 11 11 9 11 10 5 5 6 6 7
11 15 11 14 15 14 16 14 18 18 18 17 19 19 16 14 7 4 5 3 3 2 3 3 5 5 4 4 5 7 9 11 12 11 9 8 8 7 7 7 5 11 12 11
Wind_Direction
193 212 231 237 235 246 263 274 282 289 300 309 297 287 286 286 284 283 211 221 248 257 204 193 181 154 159 154 156 160 166 156 160 157 167 156 160 145 118 103 125 118 104 73
240 230 248 255 253 261 265 275 284 290 282 278 279 279 289 289 276 271 270 234 209 232 262 195 169 148 152 147 152 155 163 161 185 179 181 168 152 145 128 119 119 109 114 99
243 251 226 244 253 264 261 272 279 281 290 291 298 286 279 263 252 244 246 248 232 204 240 250 153 153 154 159 154 161 167 165 199 203 188 130 116 101 121 126 139 130 117 104
256 262 260 270 259 262 260 279 283 291 298 284 302 294 295 299 290 273 306 211 225 233 209 265 161 162 164 166 153 169 176 171 188 221 182 159 166 163 164 163 128 126 118 108
256 245 257 263 266 273 277 276 281 297 290 294 276 270 287 285 310 39 37 31 31 24 10 296 299 175 167 158 160 169 178 175 174 200 151 160 185 196 160 135 133 142 130 131
264 271 271 284 273 307 309 289 266 270 265 263 275 264 284 281 41 51 41 39 37 25 13 6 3 160 148 141 155 156 184 186 176 176 167 176 224 173 149 139 152 153 147 136
244 245 251 241 230 239 238 268 263 263 227 249 266 279 286 80 56 62 55 44 40 31 19 9 17 80 124 134 155 161 177 201 176 159 174 198 243 160 153 152 161 156 146 136
260 246 222 224 235 233 222 226 225 255 267 292 309 251 43 146 91 73 74 58 48 53 59 24 10 19 154 159 167 170 174 199 195 168 179 208 222 157 160 166 176 149 146 138
239 252 117 269 312 224 228 248 253 260 295 305 252 277 294 78 49 32 47 13 354 25 359 31 70 7 344 173 164 172 178 192 202 186 176 204 188 161 178 168 136 128 114 125
264 264 220 132 15 258 235 343 220 216 228 239 251 248 245 56 59 36 16 17 335 38 26 4 351 36 333 331 151 147 168 193 207 166 162 170 156 163 130 123 122 121 123 131
232 228 210 158 185 241 204 222 220 236 221 243 266 252 124 77 352 311 289 338 332 77 46 14 353 349 167 319 59 134 151 174 212 137 124 133 150 147 127 130 129 132 131 138
61 308 232 218 176 71 172 199 239 233 226 225 262 262 305 46 310 327 332 340 329 88 86 25 2 348 340 189 184 141 155 180 171 169 151 144 141 130 127 129 120 125 133 133
144 238 243 249 263 204 222 257 323 263 240 253 262 268 309 315 309 325 325 327 320 343 353 345 14 1 346 334 172 159 159 174 212 188 174 166 170 160 142 134 129 124 120 116
356 265 271 263 269 32 296 291 283 284 289 288 264 286 294 300 308 309 319 324 315 328 319 309 25 27 350 334 316 193 162 168 181 163 167 172 174 146 117 129 126 134 130 126
250 278 303 280 289 306 292 276 266 259 265 256 271 273 276 291 303 311 316 306 296 301 319 340 38 41 358 331 338 299 194 183 168 172 178 165 133 137 135 127 137 148 142 141
211 221 201 265 263 263 264 268 273 273 275 280 283 285 294 301 301 294 285 277 289 314 358 17 5 6 356 310 299 283 230 194 177 181 170 141 141 146 143 140 154 156 112 104
199 204 236 261 253 246 253 253 258 269 270 267 264 264 268 262 262 266 269 288 293 39 23 7 355 355 29 330 232 233 213 179 169 140 136 142 144 143 141 135 133 133 122 123
274 225 248 272 282 254 257 265 270 273 274 277 278 269 262 276 271 271 342 7 33 36 15 4 346 331 327 161 280 264 159 152 136 141 140 137 135 134 122 123 137 149 138 139
225 239 231 241 237 273 279 276 291 295 293 288 290 293 290 294 285 277 81 72 36 3 22 12 344 331 319 323 360 148 60 111 132 141 145 142 141 142 153 162 161 142 129 128
222 217 228 240 256 252 261 284 295 309 289 298 303 357 349 344 291 31 86 107 74 20 17 359 346 345 322 355 128 119 134 124 135 147 141 133 139 140 138 146 140 126 116 113
234 205 220 232 248 267 274 282 274 274 304 343 341 328 352 5 303 191 137 51 43 15 357 5 20 357 351 67 97 118 137 140 139 132 127 129 127 127 125 116 115 116 119 115
238 228 234 228 247 255 254 268 267 352 349 325 319 314 312 303 335 90 99 80 34 360 333 16 62 0 2 125 129 133 143 130 130 131 126 124 124 127 125 127 127 124 128 125
245 257 259 249 255 244 260 295 296 245 304 321 326 301 286 68 17 294 15 54 58 298 300 53 59 23 18 132 150 145 138 139 134 129 127 128 126 131 138 138 139 137 140 148
257 257 253 261 263 281 282 285 292 316 302 306 317 311 330 161 191 245 184 52 22 296 326 8 36 42 62 88 145 141 146 143 135 135 137 136 138 135 141 148 148 148 157 159
279 289 287 293 284 279 281 288 315 307 323 312 314 302 311 168 191 196 188 179 200 236 286 2 71 79 101 112 129 139 143 139 139 137 141 141 139 143 139 133 145 167 170 172
268 267 266 272 277 285 291 303 301 308 307 302 300 296 313 281 168 148 77 101 153 100 328 12 105 132 139 140 130 136 141 146 143 141 141 141 139 137 139 150 116 98 92 89